User: anonymous   Login
Location: Port Hueneme
(34.1478°N, 119.1951°W)
Time: 02:55:55
(UTC+00:00)
Language:

ATLAS 2AS CENTAUR R/B - Orbit

View from above orbital plane
View from above orbital plane
View from above satellite
View from above satellite

Ground track
Ground track

The orbit is defined by the following mean orbital elements,

1 28096U          26158.74981220 +.00000000 +00000-0 +80174-4 0 00007
2 28096  63.6811  58.9672 0070308 107.3254 253.5479 13.41070638    07
Epoch (UTC): 07 June 2026 17:59:43
Eccentricity: 0.0070308
inclination: 63.6811°
perigee height: 1053 km
apogee height: 1158 km
right ascension of ascending node: 58.9672°
argument of perigee: 107.3254°
revolutions per day: 13.41070638
mean anomaly at epoch: 253.5479°

The dashed part of the orbit path shows where the satellite is in the earth's shadow,  

DLR